Location: *
(58.4167°N, 22.5000°E)
Time: 21:20:23
(UTC+00:00)

Cosmos 2263 Rocket - Pass Details

Date: 22 September 2019
Orbit: 824 x 848 km, 71.0° (Epoch: 19 October)

Event Time Altitude Azimuth Distance (km) Brightness Sun altitude
Exits shadow 22:00:15 46° 297° (WNW) 1,123 2.9 -31.3°
Maximum altitude 22:00:58 49° 320° (NW) 1,086 2.9 -31.3°
Drops below altitude 10° 22:06:29 10° 35° (NE) 2,476 5.2 -31.3°
Sets 22:09:01 0° 41° (NE) 3,410 5.9 -31.4°
